Other Public Products
Issued by NWS Charleston, SC

Home | Current Version | Previous Version | Text Only | Print | Product List | Glossary On
Versions: 1 2 3 4 5 6 7 8 9 10 11 12 13 14 15 16 17 18 19 20 21 22 23 24 25 26 27 28 29 30 31 32 33 34 35 36 37 38 39 40 41 42 43 44 45 46 47 48 49 50
812
FPUS82 KCHS 270812
OPUCHS

TEST...KCHS/KSAV Gateway Observations...TEST
National Weather Service Charleston SC
400 AM EDT SAT MAY 27 2017

NOTE: "fair" indicates few or no clouds below 12,000 feet with no
significant weather and/or obstructions to visibility.

SCZ050-WAZ558-NCZ071-TXZ119-213-PAZ071-DCZ001-FLZ074-172-MI076-
NYZ176-178-MAZ016-IL014-TNZ027-NJZ106-GAZ044-MD014-270900-

...Gateway Observations for Charleston International...

CITY           SKY/WX    TMP DP  RH WIND       PRES   REMARKS
Chas Airport   PTCLDY    66  59  78 SW5       30.00F
Seattle        CLEAR     66  45  46 NE8       30.03R
Charlotte      MOCLDY    65  58  78 CALM      29.99R
Dallas DFW     CLOUDY    80  75  84 S17G23    29.79S
Dallas Love    CLOUDY    80  73  79 S14       29.81S
Philladelphia  CLEAR     59  52  77 W8        29.89R
Wash National  MOCLDY    63  59  87 CALM      29.93R
Baltimore      CLOUDY    59  56  89 W3        29.91S
Miami          PTCLDY    82  78  88 SE3       30.03F HX  91
Detroit        CLOUDY    60  56  86 CALM      29.87F
Newark         PTCLDY    60  53  77 SW3       29.83R
Laguardia      CLEAR     63  53  70 W13       29.82R
J F K          PTCLDY    64  55  72 NW8       29.83R
Boston Logan   CLOUDY    54  51  90 W8        29.78R
Ft. Lauderdale PTCLDY    80  77  90 S6        30.01F
Chicago O`Hare PTCLDY    54  51  90 N6        29.86S
Chicago Midway MOCLDY    57  54  89 NE5       29.85F
Houston Bush   CLOUDY    81  75  82 S9        29.88F
Houston Hobby  CLOUDY    80  76  87 S8        29.88F
Nashville      MOCLDY    75  61  61 S9        29.92S
Atlanta        PTCLDY    68  62  81 SW3       30.03S

$$

GAZ044-118-TXZ119-213-NCZ071-DCZ001-MDZ014-506-PAZ021-071-NJZ106-
NYZ176-178-MAZ106-OHZ011-021-055-MIZ076-KYZ091-ILZ014-INZ047-
MNZ060-ONZ431-270900-

...Gateway Observations for Savannah International...

CITY           SKY/WX    TMP DP  RH WIND       PRES   REMARKS
Savannah Arpt  CLEAR     66  58  75 CALM      30.02S
Atlanta        PTCLDY    68  62  81 SW3       30.03S
Charlotte      MOCLDY    65  58  78 CALM      29.99R
Dallas DFW     CLOUDY    80  75  84 S17G23    29.79S
Houston Bush   CLOUDY    81  75  82 S9        29.88F
Wash National  MOCLDY    63  59  87 CALM      29.93R
Wash Dulles    MOCLDY    57  55  93 CALM      29.93S
Baltimore      CLOUDY    59  56  89 W3        29.91S
Philadelphia   CLEAR     59  52  77 W8        29.89R
Newark         PTCLDY    60  53  77 SW3       29.83R
Laguardia      CLEAR     63  53  70 W13       29.82R
J F K          PTCLDY    64  55  72 NW8       29.83R
Boston         CLOUDY    54  51  90 W8        29.78R
Pittsburg      CLOUDY    57  55  93 CALM      29.89F
Akron          RAIN      57  54  89 SE6       29.90R FOG
Cleveland      LGT RAIN  60  56  86 SE7       29.90F FOG
Cincinnati     CLOUDY    72  63  73 SW6       29.83S
Columbus       CLOUDY    63  62  97 CALM      29.81F
Detroit        CLOUDY    60  56  86 CALM      29.87F
Chicago O`Hare PTCLDY    54  51  90 N6        29.86S
Minneapolis    CLEAR     61  46  57 CALM      29.85S
Indianapolis   MOCLDY    66  64  93 SW6       29.81S
Toronto Canada CLOUDY    57  54  88 W3        29.87F

$$




USA.gov is the U.S. government's official web portal to all federal, state and local government web resources and services.